Showing default

MESON-1, 59131

Orbit data source: Space-Track

MESON-1, 59131 is a payload satellite owned by Atomos (US) in SSO that was launched on Mon, 04 Mar 2024 UTC via an FALCON 9 launch vehicle from the Air Force Western Test Range (AFWTR). Payload-class satellites include a variety of spacecraft equipped with specific instruments for various scientific and technological missions. These include communications satellites like Starlink; space stations such as the ISS; scientific satellites like the Hubble; Earth observation satellites from companies like Planet Labs, Umbra, and HawkEye 360; GPS; miniature CubeSats for education and research; and military/defense satellites.

Loading next visibility...
Identifier
59131, 2024-043AK
Orbit
SSO
Country
Flag of USUS
Related business
Manufacturer
Atomos
Mission
Operational Commercial Technology
Bus & Motor
ATOMOS, Unknown motor
Mass
~100 kg wet, ~100 kg dry
Launch date (UTC)
2024-03-04 (2 years ago)
Launch vehicle
FALCON 9
Launch site
Air Force Western Test Range (AFWTR)
Object type
Payload
Rocket body
Debris
Shape & HBR
Box + 2 Pan, 0.5 m
Radar Cross Section
1.000 m², Medium (>0.1 m² and < 1m²)

Expand to show TLE details & history
Last TLE update: 14 hours ago

TLE from 14 hours ago
0 MESON-1
1 59131U 24043AK  26236.35669981  .00004920  00000-0  16279-3 0  9991
2 59131  97.5731  15.9200 0009946   8.6591 351.4819 15.31784136137514
Epoch: 2026-08-24T08:33Z
TLE epoch observation values (Epoch: 2026-08-24T08:33:38.863Z)
Latitude
-0.0001°
Longitude
-85.13149°
Altitude
466.853 km
Speed
7.637 km/s
True Right ascension
01h 03m 40s
True Declination
0° 00' 00"
Sunlit
Object was in full shadow at epoch
Visualization orbit readout
Latitude
Unknown
Longitude
Unknown
Altitude
Unknown
Speed
Unknown
Apparent Right ascension
Unknown
Apparent Declination
Unknown
Sunlit
N/A
Visualization observer readout
Local Sidereal Time
14:05:41
Azimuth
Unknown
Elevation
Unknown
Doppler factor
Unknown
Orbital elements
Apogee altitude
474.255 km
Perigee altitude
460.638 km
Semi-major axis
6,845.584 km
Eccentricity
0.00099
Inclination
97.5731°
RAAN
15.92°
Arg. of periapsis
8.6591°
True anomaly
351.465°
Mean anomaly
351.4819°
Eccentric anomaly
351.47345°
Mean motion
3.83202 °/min
Orbital period
93.95 mins
BSTAR
0.00016279
Loading maneuver chart data...
Computing Atmospheric mass density...
Loading historical data...
Loading historical data...
Loading historical data...
Loading historical data...
Loading historical data...
Loading historical data...
Loading historical data...

Documentation

Showing up to 5 results
|